Agen Poker Online, Agen Domino Bet, Sogo Poker, Judi Kartu Dewa Poker

Agen Bola, Agen casino, Bandar Bola, Situs Bola

Jackpot

Texas Poker Multi Jackpot System

Kini Telah hadir Jackpot SUPER ROYAL FLUSH

Kini Telah hadir Jackpot 2000 (khusus table VIP keatas).

Ikutilah global jackpot yang tersedia di system kami, dengan system jackpot terbaru dan pertama di indonesia, anda dapat membeli jackpot dengan harga 100 rupiah saja dan menangkan hadiahnya hingga puluhan juta rupiah.

Jackpot bukanlah suatu keharusan untuk dibeli, namun kami memberikan suatu fitur tambahan untuk member tercinta dari www.sgopoker.net.

Terdapat tiga pilihan harga jackpot yang bisa anda beli yaitu :100,500,1000 dan 2000(khusus table VIP Keatas) rupiah.

Hadiah dari Multi jackpot system www.sgopoker.net

  1. full house x 10 harga jackpot yang anda beli.
      (contoh:anda membeli 1000 maka:1000 X10 = 10.000)
  2. four of kind x 250 harga jackpot yang anda beli
      (contoh:anda membeli 1000 maka:1000 X250 = 250.000)
  3. Straight flush x 1200
      (contoh:anda membeli 1000 maka:1000 X1200 = 1.200.000)
  4. Royal flush x 10000 harga jackpot yang anda beli
      (contoh:anda membeli 1000 maka:1000 X10000 = 10.000.000)
  5. SUPER ROYAL FLUSH x 30000 harga jackpot yang anda beli
      (contoh:anda membeli 1000 maka:1000 X30000 = 30.000.000)

Kondisi kartu

  1. full house adalah kondisi kartu dimana kartu anda dan kartu tengah dengan total 7 kartu bisa mendapatkan nilai 5 kartu dengan kombinasi 1 tris(three of kind) dan 1 pair, contoh 3 kartu 10 dan 2 kartu 5
  2. Four of kind adalah kondisi kartu dimana kartu anda dan kartu tengah dengan total 7 kartu bisa mendapatkan nilai 5 kartu dengan kombinasi 4 kartu yang sama jumlah dan 1 kartu apapun juga contoh anda mendapatkan 4 buah kartu angka 3 dan 1 kartu apapun.
  3. Staright flush adalah kondisi kartu dimana kartu anda dan kartu tengah dengan total 7 kartu bisa mendapatkan nilai 5 kartu dengan kombinasi seri / staright dengan kembang yang sama contoh : urutan kartu dari angka 5, 6, 7, 8 , 9 10 dengan kembang yg sama misalnya as hati
  4. Royal flush adalah kondisi kartu dimana kartu anda dan kartu tengah dengan total 7 kartu bisa mendapatkan nilai 5 kartu dengan kombinasi seri / staright dengan kembang yang sama tetapi kartu tersebut haruslah dimulai dari 10. contoh 10, Queen, Jack, King dan aces dengan kembang yang sama
  5. Super Royal flush adalah kondisi kartu dimana Kedua kartu anda digabung dengan 3 kartu pertama meja haruslah royal flush. contoh kartu anda 10,Queen kembang sama dan 3 kartu pertama meja adalah Jack, King dan aces dengan kembang yang sama

Demikian adalah penjelasan dari Multi Jackpot www.sgopoker.net terima kasih dan selamat bermain salam hoki dari kami

Texas Poker Jackpot Winner

TOP SUPER ROYAL FLUSH
No.TanggalNamaPriceWin
123/09 15:54LEKOANSuper Royal flush30,000,000
223/09 00:22NEYDOS19Super Royal flush6,000,000
323/09 00:06BD788Super Royal flush6,000,000
422/09 21:57M4Y0R999Super Royal flush15,000,000
522/09 21:48F6075A84Super Royal flush30,000,000
TOP ROYAL FLUSH
No.TanggalNamaPriceWin
123/09 16:04MIN98Royal flush2,000,000
223/09 16:00MORAGA12Royal flush2,000,000
323/09 15:33LUMBUNG09Royal flush1,000,000
423/09 15:21TAISIAU1Royal flush10,000,000
523/09 15:19C9PN6Q8JEMRoyal flush2,000,000
TOP STRAIGHT FLUSH
No.TanggalNamaPriceWin
123/09 16:05LK4DOYONG47Straight Flush120,000
223/09 16:04BABINGOBOStraight Flush240,000
323/09 16:03B4ND1T90Straight Flush600,000
423/09 16:03TINDUNG99Straight Flush1,200,000
523/09 16:02AMD5454321Straight Flush1,200,000
LATEST JACKPOT
No.TanggalNamaPriceWin
123/09 16:06BADBOIS86Full House10,000
223/09 16:06ALANA378Full House5,000
323/09 16:06E2A652D5Full House5,000
423/09 16:06HERMESXXXZFull House5,000
523/09 16:06EMANEFull House5,000
623/09 16:06JEMBAS88Full House5,000
723/09 16:05TEMP078Four Of A Kind50,000
823/09 16:05BOB5Four Of A Kind50,000
923/09 16:05EDB0F35DFull House5,000
1023/09 16:05JAINKRUKAPFull House10,000
1123/09 16:05KRL33Full House2,000
1223/09 16:05TARILUFull House5,000
1323/09 16:0520SMFull House10,000
1423/09 16:05MAHERO95Full House10,000
1523/09 16:05CUKEW666Full House1,000
1623/09 16:05NDHO69Full House2,000
1723/09 16:05KHOLIS55Full House1,000
1823/09 16:05T4D0015287Full House5,000
1923/09 16:05LOPEZ07Full House5,000
2023/09 16:05BAEFA01DFull House2,000
2123/09 16:05A91295ABFull House1,000
2223/09 16:05GANTENG19Four Of A Kind250,000
2323/09 16:05PREPATONFull House500
2423/09 16:05DJ_ARYOFull House500
2523/09 16:05IBBAYFull House2,000
2623/09 16:05STMART90Full House20,000
2723/09 16:05YOGANYETFull House2,000
2823/09 16:05RCEHWCBEFAFull House1,000
2923/09 16:05MADUR11Full House2,000
3023/09 16:05AALNACNA98Full House1,000
3123/09 16:05TOMMY1910Full House2,000
3223/09 16:05M3LI008Full House500
3323/09 16:05REBN49TOINFour Of A Kind12,500
3423/09 16:05X19Z7KF76NFour Of A Kind50,000
3523/09 16:05SJAYA198Full House2,000
3623/09 16:05BUBUR305Full House2,000
3723/09 16:05RENGAS07Full House20,000
3823/09 16:05VELER45Full House5,000
3923/09 16:05ZJRW50GLMXFull House1,000
4023/09 16:05FRENZI88Full House2,000
4123/09 16:05SOK_T0Full House5,000
4223/09 16:05LK4DOYONG47Straight Flush120,000
4323/09 16:05HARUTO78Full House2,000
4423/09 16:05CHEKING1Full House5,000
4523/09 16:05AJEL66Full House20,000
4623/09 16:05JPXNDARFull House2,000
4723/09 16:05W4NT3D_02Full House2,000
4823/09 16:05HOKI_HOKI8Full House5,000
4923/09 16:05UTARA237Full House20,000
5023/09 16:05IDNGRVIS67Full House10,000

Domino Multi Jackpot System

Ikutilah global jackpot yang tersedia di system kami, dengan system jackpot terbaru dan pertama di indonesia, anda dapat membeli jackpot dengan harga 100 rupiah saja dan menangkan hadiahnya hingga puluhan juta rupiah.

Jackpot bukanlah suatu keharusan untuk dibeli, namun kami memberikan suatu fitur tambahan untuk member tercinta dari www.sgopoker.net.

Terdapat tiga pilihan harga jackpot yang bisa anda beli yaitu :100,500 dan 1000 rupiah.

Hadiah dari Multi jackpot system www.sgopoker.net

  1. Murni Kecil x 50 harga jackpot yang anda beli.
      (contoh:anda membeli 1000 maka:1000 X 50 = 50.000)
  2. Murni Besar x 50 harga jackpot yang anda beli
      (contoh:anda membeli 1000 maka:1000 X 50 = 50.000)
  3. BALAK x 100 harga jackpot yang anda beli
      (contoh:anda membeli 1000 maka:1000 X 100 = 100.000)
  4. ENAM DEWA x 6666 harga jackpot yang anda beli
      (contoh:anda membeli 1000 maka:1000 X 6666 = 6.666.000)

Demikian adalah penjelasan dari Multi Jackpot www.sgopoker.net terima kasih dan selamat bermain salam hoki dari kami

Domino Jackpot Winner

TOP ENAM DEWA
No.TanggalNamaPriceWin
123/09 15:57SEWABATU46murni enam3,333,000
223/09 14:27DDI1LC3OVYmurni enam666,600
323/09 14:14LAMSImurni enam6,666,000
423/09 09:57MAHES0586murni enam3,333,000
523/09 07:44PASTA10murni enam666,600
TOP BALAK
No.TanggalNamaPriceWin
123/09 16:04GK1217balak10,000
223/09 16:00ASD1232balak50,000
323/09 15:54RDR14Nbalak50,000
423/09 15:53CUPI266balak100,000
523/09 15:51K4D4L55balak100,000
LATEST JACKPOT
No.TanggalNamaPriceWin
123/09 16:05A5D6APO5HEmurni kecil5,000
223/09 16:05MASGIRImurni kecil50,000
323/09 16:04FERMAN21murni kecil25,000
423/09 16:04ALVAROIONEmurni besar25,000
523/09 16:04GAMALIEL99murni besar50,000
623/09 16:04GK1217balak10,000
723/09 16:03YANGTImurni besar50,000
823/09 16:03RAJANYA999murni besar25,000
923/09 16:02ASVIA666murni kecil25,000
1023/09 16:02ROY4LFLUmurni besar25,000
1123/09 16:00REX1411murni besar25,000
1223/09 16:00ASD1232balak50,000
1323/09 15:59RDR14Nmurni besar25,000
1423/09 15:59WLJ4YUHYIOmurni kecil50,000
1523/09 15:59MOXDEX85murni besar50,000
1623/09 15:57SEWABATU46murni enam3,333,000
1723/09 15:57JULAK19murni kecil25,000
1823/09 15:57OCOL8686murni kecil25,000
1923/09 15:57SUKERMAN99murni kecil25,000
2023/09 15:57ALVO34murni besar25,000
2123/09 15:56SIKIL85murni besar5,000
2223/09 15:56BATUBARA99murni besar50,000
2323/09 15:55YOLLA_ARYAmurni kecil25,000
2423/09 15:55BNI8888888murni kecil5,000
2523/09 15:54RICKY1395murni besar50,000
2623/09 15:54RDR14Nbalak50,000
2723/09 15:54THEKILD098murni besar5,000
2823/09 15:53CUPI266balak100,000
2923/09 15:53ZZZXXX2525murni besar25,000
3023/09 15:52M33HRANmurni kecil5,000
3123/09 15:52EBISUDWmurni besar5,000
3223/09 15:51RDR14Nmurni besar25,000
3323/09 15:51DWBTPACE39murni kecil25,000
3423/09 15:51K4D4L55balak100,000
3523/09 15:50YD00OT9QGVmurni kecil25,000
3623/09 15:50SITAKAbalak100,000
3723/09 15:50RANGSEK99murni besar5,000
3823/09 15:49MASGIRImurni besar50,000
3923/09 15:48SUKERMAN99murni kecil25,000
4023/09 15:47NELSIAbalak50,000
4123/09 15:47E344E9C6murni kecil5,000
4223/09 15:47PLG0001116murni kecil50,000
4323/09 15:47DIEDU69balak10,000
4423/09 15:46CIATCIAAATmurni kecil50,000
4523/09 15:46CAGAK998murni besar25,000
4623/09 15:46RIYOSLAMETmurni kecil25,000
4723/09 15:46MPOY99murni kecil5,000
4823/09 15:45N1KO01murni besar50,000
4923/09 15:45CIN040594murni kecil25,000
5023/09 15:44GAMBZ27murni kecil5,000

Ceme Multi Jackpot System

Jackpot dilihat dari gabungan kartu pemain dengan kartu bandar. Bandar harus membeli jackpot sebanyak jumlah player yang sedang duduk. Sebagai contoh bila terdapat 3 pemain duduk bermain, dan bandar memutuskan untuk membeli jackpot Rp 1.000, maka pada periode tersebut bandar akan membeli jackpot sebanyak 3xRp1.000 = Rp3.000.

Jackpot bukanlah suatu keharusan untuk dibeli, namun kami memberikan suatu fitur tambahan untuk member tercinta dari www.sgopoker.net.

Terdapat tiga pilihan harga jackpot yang bisa anda beli yaitu :100,500 dan 1000 rupiah.

Hadiah dari Multi jackpot system www.sgopoker.net

  1. Murni Kecil x 50 harga jackpot yang anda beli.
      (contoh:anda membeli 1000 maka:1000 X 50 = 50.000)
  2. Murni Besar x 50 harga jackpot yang anda beli
      (contoh:anda membeli 1000 maka:1000 X 50 = 50.000)
  3. BALAK x 200 harga jackpot yang anda beli
      (contoh:anda membeli 1000 maka:1000 X 200 = 200.000)
  4. ENAM DEWA x 6666 harga jackpot yang anda beli
      (contoh:anda membeli 1000 maka:1000 X 6666 = 6.666.000)

Demikian adalah penjelasan dari Multi Jackpot www.sgopoker.net terima kasih dan selamat bermain salam hoki dari kami

Ceme Jackpot Winner

TOP ENAM DEWA
No.TanggalNamaPriceWin
123/09 16:03KIKI6363murni enam6,666,000
223/09 15:47ROQINROCKmurni enam666,600
323/09 14:25THEKING909murni enam6,666,000
423/09 14:25HENDELmurni enam3,333,000
523/09 14:24MR_F1murni enam6,666,000
TOP BALAK
No.TanggalNamaPriceWin
123/09 16:05AZUS123balak100,000
223/09 16:05HOKI2706balak200,000
323/09 16:05I00Ibalak200,000
423/09 16:05BGP22balak100,000
523/09 16:05CEMUT999balak200,000
LATEST JACKPOT
No.TanggalNamaPriceWin
123/09 16:05BCEXmurni besar25,000
223/09 16:05BY17murni besar5,000
323/09 16:05AZUS123balak100,000
423/09 16:05HOKI2706balak200,000
523/09 16:05JUSAPELmurni kecil50,000
623/09 16:05I00Ibalak200,000
723/09 16:05ANDY84murni besar50,000
823/09 16:05CIDRO378murni kecil50,000
923/09 16:05RANEXmurni besar5,000
1023/09 16:05BGP22balak100,000
1123/09 16:05CEMUT999balak200,000
1223/09 16:05BABYFmurni kecil5,000
1323/09 16:05YANTOANTOmurni kecil50,000
1423/09 16:05CEME777777balak100,000
1523/09 16:05SUKABASAHmurni kecil50,000
1623/09 16:05MILLA20murni kecil5,000
1723/09 16:05LEMBAH87balak100,000
1823/09 16:05BECELENGbalak20,000
1923/09 16:05ROJALI85murni besar5,000
2023/09 16:04BOLOHO12balak100,000
2123/09 16:04DM166294murni kecil5,000
2223/09 16:04LOWOGEDEmurni besar50,000
2323/09 16:04RITCHIE1murni kecil5,000
2423/09 16:04BAWUK78murni kecil5,000
2523/09 16:04LEDUM09murni kecil50,000
2623/09 16:04AMOI96murni kecil50,000
2723/09 16:04BAHO001murni besar5,000
2823/09 16:04MONICJUDESmurni kecil5,000
2923/09 16:04DWBT0168murni kecil25,000
3023/09 16:04E1C818B4murni kecil25,000
3123/09 16:04PUSY111murni besar5,000
3223/09 16:04DILINK10murni kecil50,000
3323/09 16:04LONG_GARmurni kecil50,000
3423/09 16:03KIKI6363murni enam6,666,000
3523/09 16:03AKBARMOMOTmurni kecil25,000
3623/09 16:03LOWOGEDEmurni kecil50,000
3723/09 16:03KERASKALmurni kecil25,000
3823/09 16:03DIAAN378balak20,000
3923/09 16:03WANESTAmurni kecil5,000
4023/09 16:03BOTINK28murni besar50,000
4123/09 16:03FDSRTVmurni besar50,000
4223/09 16:03MR_F1murni kecil50,000
4323/09 16:03HADI0507murni kecil25,000
4423/09 16:03BLEDEK61murni kecil50,000
4523/09 16:03I00Imurni besar50,000
4623/09 16:03DA2NAR4Amurni besar50,000
4723/09 16:03AHONKJPWAEmurni kecil25,000
4823/09 16:03D22E415Amurni kecil25,000
4923/09 16:03V1998murni kecil50,000
5023/09 16:03BLACKDDmurni besar50,000